Regional Weather Roundup
Issued by NWS

Home | Current Version | Previous Version | Graphics & Text | Print | Product List | Glossary On
Versions: 1 2 3 4 5 6 7 8 9 10 11 12 13 14 15 16 17 18 19 20 21 22 23 24 25 26 27 28 29 30 31 32 33 34 35 36 37 38 39 40 41 42 43 44 45 46 47 48 49 50
000
ASUS43 KLOT 251300
RWRIL

ILLINOIS REGIONAL WEATHER ROUNDUP
NATIONAL WEATHER SERVICE CHICAGO/ROMEOVILLE IL
700 AM CST THU DEC 25 2014

NOTE: "FAIR" INDICATES FEW OR NO CLOUDS BELOW 12,000 FEET WITH NO
SIGNIFICANT WEATHER AND/OR OBSTRUCTIONS TO VISIBILITY.

* THESE STATIONS ARE NOT UNDER NWS QUALITY CONTROL. THEY ALSO MAY NOT
  REPORT WEATHER SUCH AS PRECIPITATION OR FOG.

ILZ001-002-007-009-015-016-024-251400-
NORTHWEST ILLINOIS

CITY           SKY/WX    TMP DP  RH WIND       PRES   REMARKS
MOLINE         CLOUDY    34  27  75 SW10      29.86R WCI  26
STERLING*      CLOUDY    34  27  75 W12       29.87R WCI  25
$$

ILZ003-004-008-010-011-017-018-251400-
NORTH CENTRAL ILLINOIS

CITY           SKY/WX    TMP DP  RH WIND       PRES   REMARKS
ROCKFORD       CLOUDY    33  27  78 SW14G22   29.86R WCI  23
$$

ILZ005-006-012>014-019>023-251400-
NORTHEAST ILLINOIS

CITY           SKY/WX    TMP DP  RH WIND       PRES   REMARKS
CHICAGO-OHARE  CLOUDY    34  28  79 SW15      29.85R WCI  24
CHICAGO-MIDWAY CLOUDY    35  29  78 SW12G25   29.87R WCI  27
AURORA         CLOUDY    34  28  79 W13       29.87R WCI  25
WAUKEGAN       CLOUDY    33  27  78 SW9G22    29.82R WCI  25
DUPAGE AIRPORT CLOUDY    33  28  81 SW17      29.85R WCI  22
WHEELING       CLOUDY    34  27  75 SW14G20   29.86R WCI  25
NORTHERLY ISL    N/A     35  28  76 W12         N/A  WCI  27
$$

LMZ740>746-251400-
SOUTHERN LAKE MICHIGAN

STATION/POSITION SKY/WX   TEMP    WIND        PRES    VSBY  WAVE
                          AIR SEA DIR/SP/G                  HT/PER
                          (F)     (DEG/KT/KT) (MB)    (MI)  (FT/S)
WAUKEGAN HARBOR            34                   N/A
HARRISON CRIB              34     260/ 18/ 24   N/A
BURNHAM HARBOR             35     270/ 10/ 15   N/A
CALUMET HARBOR             35     230/  9/ 12 1010.2R
MICHIGAN CITY              35     220/ 24/ 26   N/A
$$

ILZ025>027-034>036-040-047-049-050-058-095>099-251400-
WEST-CENTRAL ILLINOIS

CITY           SKY/WX    TMP DP  RH WIND       PRES   REMARKS
QUINCY         CLEAR     32  28  85 S10       29.90R WCI  24
$$

ILZ028>032-037-038-041>044-048-051>054-059>061-251400-
CENTRAL ILLINOIS

CITY           SKY/WX    TMP DP  RH WIND       PRES   REMARKS
DECATUR        CLOUDY    36  30  79 SW10      29.97R WCI  28
PEORIA         CLOUDY    36  28  73 SW10      29.92R WCI  28
SPRINGFIELD    CLOUDY    36  29  75 SW9       29.96R WCI  29
TAYLORVILLE    NOT AVBL
$$

ILZ033-039-045-046-055>057-062-063-251400-
EAST-CENTRAL ILLINOIS

CITY           SKY/WX    TMP DP  RH WIND       PRES   REMARKS
CHAMPAIGN      CLOUDY    35  31  85 SW13      29.96R WCI  26
MATTOON        CLOUDY    36  30  79 SW5       29.98R WCI  32
$$

ILZ079-100>102-251400-
SOUTHWEST ILLINOIS

CITY           SKY/WX    TMP DP  RH WIND       PRES   REMARKS
ALTON          CLEAR     37  32  81 S7        29.83F WCI  32
BELLEVILLE     CLEAR     33  32  95 S6        30.01R WCI  27
CAHOKIA*       CLEAR     34  30  85 S5        30.00R WCI  30
$$

ILZ064>066-069>071-074>076-080>082-084>086-088>090-092>094-251400-
SOUTH-CENTRAL ILLINOIS

CITY           SKY/WX    TMP DP  RH WIND       PRES   REMARKS
CARBONDALE     CLEAR     32  28  85 S5        30.05R WCI  27
MARION         PTCLDY    34  32  93 S7        30.06R WCI  28
MT. VERNON     CLOUDY    37  28  70 SW9       30.04R WCI  31
$$

ILZ067-068-072-073-078-083-087-091-251400-
SOUTHEAST ILLINOIS

CITY           SKY/WX    TMP DP  RH WIND       PRES   REMARKS
LAWRENCEVILLE  CLOUDY    38  34  85 S7        30.04R WCI  33
$$

ABBREVIATIONS USED IN REMARKS
   TC - TEMPERATURE IN CELSIUS
  WCI - WIND CHILL INDEX
   HX - HEAT INDEX
  VSB - VISIBILITY
$$




USA.gov is the U.S. government's official web portal to all federal, state and local government web resources and services.